Location: Tierz
(42.1336°N, 0.3549°W)
Time: 18:20:33
(UTC+00:00)

CORIOLIS - Pass Details

Date: 29 October 2020
Orbit: 819 x 838 km, 98.7° (Epoch: 03 December)

Event Time Altitude Azimuth Distance (km) Brightness Sun altitude
Rises 17:26:43 0° 161° (SSE) 3,334 7.3 -5.9°
Reaches altitude 10° 17:29:02 10° 161° (SSE) 2,407 6.5 -6.3°
Maximum altitude 17:34:22 81° 74° (ENE) 836 4.1 -7.2°
Drops below altitude 10° 17:39:45 10° 348° (NNW) 2,430 6.6 -8.2°
Sets 17:42:06 0° 348° (NNW) 3,369 7.4 -8.6°
